Weather History for EGDY - September, 2013

Change the Weather History Date:

Wednesday, September 18, 2013

  Actual Average Record
Temperature  
Mean Temperature 54 °F -  
Max Temperature 62 °F 60 °F 75 °F (1997)
Min Temperature 46 °F 46 °F 35 °F (2010)
Degree Days  
Heating Degree Days 11    
Growing Degree Days 4 (Base 50)    
Moisture  
Dew Point 49 °F    
Average Humidity 80    
Maximum Humidity 95    
Minimum Humidity 51    
Precipitation  
Precipitation 0.03 in - - ()
Sea Level Pressure  
Sea Level Pressure 29.69 in    
Wind  
Wind Speed 10 mph ()    
Max Wind Speed 22 mph    
Max Gust Speed 33 mph    
Visibility 7.7 miles    
Events Fog , Rain    
Averages and records for this station are not official NWS values.
T = Trace of Precipitation, MM = Missing Value Source: Averaged Metar Reports

Daily Weather History Graph

Daily Weather History Graph

Search for Another Location

Airport or City:

Trip Planner

Search our weather history database for the weather conditions in past years. The results will help you decide how hot, cold, wet, or windy it might be!

Date:

Astronomy

Sep. 18, 2013 Rise Set
Actual Time 6:50 AM BST 7:17 PM BST
Civil Twilight 6:17 AM BST 7:50 PM BST
Nautical Twilight 5:37 AM BST 8:30 PM BST
Astronomical Twilight 4:56 AM BST 9:11 PM BST
Moon 6:31 PM BST (9/18) 5:33 AM BST (9/18)
Length of Visible Light 13h 33m
Length of Day
12h 27m
Waxing Gibbous, 99% of the Moon is Illuminated
Sep 18
Waxing Gibbous
Sep 19
Full
Sep 27
Last Quarter
Oct 5
New
Oct 12
First Quarter

Hourly Weather History & Observations

Time (BST) Temp. Windchill Dew Point Humidity Pressure Visibility Wind Dir Wind Speed Gust Speed Precip Events Conditions
12:50 AM 57 °F - 54 °F 85% 29.49 in 19 mi West 13.8 mph - - Rain Rain
12:50 AM 57.2 °F - 53.6 °F 88% 29.47 in 6.2 mi West 13.8 mph - N/A   Mostly Cloudy
1:50 AM 57.2 °F - 53.6 °F 88% 29.47 in 6.2 mi West 9.2 mph - N/A   Mostly Cloudy
2:50 AM 57.2 °F - 53.6 °F 88% 29.50 in 6.2 mi West 15.0 mph - N/A   Light Drizzle
3:50 AM 56 °F - 54 °F 90% 29.51 in 7 mi West 10.4 mph - - Rain Light Drizzle
3:50 AM 55.4 °F - 53.6 °F 94% 29.50 in 6.2 mi West 10.4 mph - N/A   Light Drizzle
4:50 AM 55.4 °F - 53.6 °F 94% 29.50 in 6.2 mi WSW 10.4 mph - N/A   Mostly Cloudy
5:50 AM 55.4 °F - 53.6 °F 94% 29.53 in 2.2 mi West 10.4 mph - N/A Rain Light Rain
6:50 AM 55 °F - 54 °F 94% 29.57 in 3 mi West 6.9 mph - - Rain Light Drizzle
6:50 AM 55.4 °F - 53.6 °F 94% 29.56 in 3.1 mi West 6.9 mph - N/A   Light Drizzle
7:50 AM 55.4 °F - 53.6 °F 94% 29.59 in 3.7 mi West 8.1 mph - N/A Fog Fog
8:34 AM 53.6 °F - 51.8 °F 94% 29.59 in 1.9 mi North 9.2 mph - N/A Rain Rain
8:50 AM 53.6 °F - 51.8 °F 94% 29.62 in 3.1 mi North 5.8 mph - N/A Rain Rain
9:50 AM 54 °F - 53 °F 95% 29.67 in 6 mi NW 4.6 mph - - Rain Light Rain
9:50 AM 55.4 °F - 53.6 °F 94% 29.65 in 6.2 mi NW 4.6 mph - N/A   Mostly Cloudy
10:50 AM 55.4 °F - 53.6 °F 94% 29.68 in 6.2 mi West 6.9 mph - N/A   Mostly Cloudy
11:50 AM 59.0 °F - 50.0 °F 72% 29.71 in 6.2 mi WNW 16.1 mph - N/A   Scattered Clouds
12:50 PM 60 °F - 47 °F 52% 29.73 in 19 mi NW 17.3 mph - -   Partly Cloudy
12:50 PM 59.0 °F - 46.4 °F 63% 29.71 in 6.2 mi NW 17.3 mph - N/A   Scattered Clouds
1:50 PM 59.0 °F - 46.4 °F 63% 29.74 in 6.2 mi NW 15.0 mph - N/A   Scattered Clouds
2:50 PM 60.8 °F - 46.4 °F 59% 29.74 in 6.2 mi WNW 19.6 mph - N/A   Scattered Clouds
3:50 PM 59 °F - 46 °F 51% 29.79 in 19 mi WNW 19.6 mph - -   Mostly Cloudy
3:50 PM 59.0 °F - 46.4 °F 63% 29.77 in 6.2 mi WNW 19.6 mph - N/A   Mostly Cloudy
4:50 PM 59.0 °F - 46.4 °F 63% 29.80 in 6.2 mi WNW 21.9 mph 33.4 mph N/A   Mostly Cloudy
5:50 PM 59.0 °F - 44.6 °F 59% 29.80 in 6.2 mi WNW 18.4 mph - N/A   Mostly Cloudy
6:50 PM 56 °F - 45 °F 56% 29.85 in 19 mi NW 12.7 mph - -   Partly Cloudy
6:50 PM 55.4 °F - 44.6 °F 67% 29.83 in 6.2 mi NW 12.7 mph - N/A   Scattered Clouds
7:50 PM 53.6 °F - 44.6 °F 72% 29.86 in - West 6.9 mph - N/A   Clear
8:50 PM 46.4 °F 41.5 °F 42.8 °F 87% 29.89 in - West 10.4 mph - N/A   Clear
9:50 PM 49 °F - 43 °F 74% 29.91 in 19 mi SSW 3.5 mph - -   Scattered Clouds
9:50 PM 48.2 °F - 42.8 °F 82% 29.89 in - SSW 3.5 mph - N/A   Clear
10:50 PM 46.4 °F - 42.8 °F 87% 29.92 in 6.2 mi East 2.3 mph - N/A   Mostly Cloudy
11:50 PM 48.2 °F - 44.6 °F 87% 29.92 in 6.2 mi East 3.5 mph - N/A   Mostly Cloudy